Location: Akdamlar
(36.8729°N, 30.5187°E)
Time: 22:26:30
(UTC+00:00)

Cosmos 1092 Rocket - Visible Passes

Search period start: 24 January 2021 00:00
Search period end: 03 February 2021 00:00
Orbit: 953 x 996 km, 82.9° (Epoch: 24 January)

Date Brightness Start Highest point End Pass type
(mag) Time Alt. Az. Time Alt. Az. Time Alt. Az.
24 Jan 4.7 03:20:18 10° N 03:26:18 53° E 03:32:19 10° SSE visible
24 Jan 4.5 16:47:04 10° SSW 16:53:11 61° W 16:59:17 10° N visible
25 Jan 6.8 02:02:53 10° NE 02:05:23 12° ENE 02:07:52 10° E visible
25 Jan 3.9 03:45:18 10° N 03:51:28 84° W 03:57:39 10° S visible
25 Jan 5.6 17:13:00 10° SW 17:18:29 33° WNW 17:23:58 10° NNW visible
26 Jan 6.1 02:26:05 10° NNE 02:30:58 24° ENE 02:35:51 10° SE visible
26 Jan 4.3 04:10:41 10° NNW 04:16:28 44° W 04:22:18 10° SSW visible
26 Jan 4.0 15:52:06 10° S 15:58:10 61° E 16:04:13 10° NNE visible
26 Jan 6.5 17:39:56 10° WSW 17:43:57 18° WNW 17:47:58 10° NNW visible
27 Jan 5.0 02:50:29 10° N 02:56:21 44° E 03:02:13 10° SSE visible
27 Jan 5.0 04:36:35 10° NW 04:41:19 24° W 04:46:05 10° SW visible
27 Jan 4.2 16:17:05 10° SSW 16:23:15 74° W 16:29:24 10° N visible
28 Jan 4.0 03:15:22 10° N 03:21:33 83° E 03:27:46 10° S visible
28 Jan 5.4 16:42:47 10° SW 16:48:29 39° WNW 16:54:13 10° N visible
29 Jan 6.3 01:56:30 10° NNE 02:00:56 20° ENE 02:05:21 10° ESE visible
29 Jan 4.0 03:40:38 10° NNW 03:46:37 54° W 03:52:37 10° SSW visible
29 Jan 6.4 17:09:22 10° WSW 17:13:54 21° WNW 17:18:28 10° NNW visible
30 Jan 5.3 02:20:42 10° N 02:26:23 37° ENE 02:32:03 10° SE visible
30 Jan 4.7 04:06:21 10° NNW 04:11:30 29° W 04:16:41 10° SW visible
30 Jan 4.1 15:47:09 10° S 15:53:19 87° W 15:59:30 10° N visible
30 Jan 6.9 17:38:11 10° W 17:39:32 11° WNW 17:40:54 10° NW visible
31 Jan 4.2 02:45:28 10° N 02:51:37 69° E 02:57:49 10° SSE visible
31 Jan 5.4 04:32:59 10° NW 04:36:14 15° W 04:39:30 10° WSW visible
31 Jan 5.1 16:12:37 10° SSW 16:18:31 47° W 16:24:25 10° N visible
01 Feb 6.4 01:27:03 10° NNE 01:30:53 17° ENE 01:34:44 10° ESE visible
01 Feb 3.9 03:10:37 10° NNW 03:16:43 65° W 03:22:52 10° S visible
01 Feb 6.2 16:38:54 10° SW 16:43:53 25° WNW 16:48:52 10° NNW visible
02 Feb 5.6 01:50:57 10° NNE 01:56:23 31° ENE 02:01:49 10° SE visible
02 Feb 4.5 03:36:11 10° NNW 03:41:40 34° W 03:47:11 10° SSW visible
02 Feb 6.8 17:06:37 10° W 17:09:26 13° WNW 17:12:16 10° NW visible
